Detroit Lakes, MN

6:32 PM CST on January 20, 2017 (GMT -0600)
Detroit Lakes

Weather History for KDTL - January, 2014

Change the Weather History Date:

Friday, January 17, 2014

  Actual Average Record
Temperature  
Mean Temperature 0 °F -  
Max Temperature 12 °F 15 °F 44 °F (1973)
Min Temperature -13 °F -4 °F -37 °F (1962)
Degree Days  
Heating Degree Days 66    
Moisture  
Dew Point -5 °F    
Average Humidity 79    
Maximum Humidity 92    
Minimum Humidity 62    
Precipitation  
Precipitation 0.00 in - - ()
Sea Level Pressure  
Sea Level Pressure 29.92 in    
Wind  
Wind Speed 8 mph (SW)    
Max Wind Speed 16 mph    
Max Gust Speed 16 mph    
Visibility 8 miles    
Events Snow    
Averages and records for this station are not official NWS values.
T = Trace of Precipitation, MM = Missing Value Source: NWS Daily Summary

Daily Weather History Graph

Daily Weather History Graph

Search for Another Location

Airport or City:

Trip Planner

Search our weather history database for the weather conditions in past years. The results will help you decide how hot, cold, wet, or windy it might be!

Date:

Astronomy

Jan. 17, 2014 Rise Set
Actual Time 8:02 AM CST 5:04 PM CST
Civil Twilight 7:29 AM CST 5:38 PM CST
Nautical Twilight 6:51 AM CST 6:16 PM CST
Astronomical Twilight 6:15 AM CST 6:52 PM CST
Moon 7:02 PM CST (1/17) 8:22 AM CST (1/17)
Length of Visible Light 10h 09m
Length of Day
9h 02m
Full, 98% of the Moon is Illuminated
Jan 17
Full
Jan 23
Last Quarter
Jan 30
New
Feb 6
First Quarter
Feb 14
Full

Hourly Weather History & Observations

Time (CST) Temp. Windchill Dew Point Humidity Pressure Visibility Wind Dir Wind Speed Gust Speed Precip Events Conditions
12:15 AM -4.0 °F -23.0 °F -7.6 °F 85% 30.03 in 10.0 mi NNW 12.7 mph - N/A   Clear
12:35 AM -5.8 °F -24.4 °F -7.6 °F 92% 30.02 in 10.0 mi NNW 11.5 mph - N/A   Clear
12:55 AM -5.8 °F -25.2 °F -9.4 °F 84% 30.03 in 10.0 mi NNW 12.7 mph 16.1 mph N/A   Clear
1:15 AM -5.8 °F -22.4 °F -9.4 °F 84% 30.03 in 10.0 mi NNW 9.2 mph - N/A   Clear
1:35 AM -5.8 °F -23.4 °F -9.4 °F 84% 30.04 in 10.0 mi NW 10.4 mph - N/A   Clear
1:55 AM -5.8 °F -24.4 °F -9.4 °F 84% 30.04 in 10.0 mi NW 11.5 mph - N/A   Clear
2:15 AM -5.8 °F -23.4 °F -9.4 °F 84% 30.05 in 10.0 mi NW 10.4 mph - N/A Snow Light Snow
2:35 AM -7.6 °F -22.1 °F -9.4 °F 92% 30.05 in 10.0 mi NNW 6.9 mph - N/A Snow Light Snow
2:55 AM -7.6 °F -23.4 °F -11.2 °F 84% 30.05 in 10.0 mi NNW 8.1 mph - N/A   Clear
3:15 AM -7.6 °F -24.6 °F -11.2 °F 84% 30.05 in 10.0 mi NNW 9.2 mph - N/A   Clear
3:35 AM -7.6 °F -25.7 °F -13.0 °F 77% 30.05 in 10.0 mi NNW 10.4 mph - N/A   Clear
3:55 AM -9.4 °F -26.8 °F -13.0 °F 84% 30.06 in 10.0 mi NW 9.2 mph - N/A   Clear
4:14 AM -9.4 °F -25.6 °F -13.0 °F 84% 30.05 in 10.0 mi NNW 8.1 mph - N/A   Clear
4:35 AM -9.4 °F -22.7 °F -13.0 °F 84% 30.05 in 7.0 mi NNW 5.8 mph - N/A   Clear
4:55 AM -9.4 °F -24.3 °F -14.8 °F 77% 30.05 in 10.0 mi NNW 6.9 mph - N/A   Clear
5:14 AM -11.2 °F -24.8 °F -14.8 °F 84% 30.05 in 10.0 mi NNW 5.8 mph - N/A   Clear
5:35 AM -9.4 °F -22.7 °F -14.8 °F 77% 30.05 in 10.0 mi NNW 5.8 mph - N/A   Clear
5:55 AM -11.2 °F -23.0 °F -14.8 °F 84% 30.05 in 10.0 mi NNW 4.6 mph - N/A   Clear
6:15 AM -11.2 °F -23.0 °F -14.8 °F 84% 30.06 in 10.0 mi NW 4.6 mph - N/A   Clear
6:35 AM -11.2 °F -24.8 °F -14.8 °F 84% 30.06 in 10.0 mi NW 5.8 mph - N/A   Clear
6:54 AM -13.0 °F -25.1 °F -14.8 °F 92% 30.06 in 10.0 mi NW 4.6 mph - N/A   Clear
7:15 AM -13.0 °F -25.1 °F -16.6 °F 84% 30.05 in 5.0 mi NW 4.6 mph - N/A   Clear
7:35 AM -13.0 °F -22.7 °F -16.6 °F 84% 30.05 in 2.5 mi WNW 3.5 mph - N/A   Clear
7:55 AM -11.2 °F -23.0 °F -14.8 °F 84% 30.04 in 7.0 mi NW 4.6 mph - N/A   Clear
8:15 AM -11.2 °F - -14.8 °F 84% 30.04 in 10.0 mi Calm Calm - N/A   Clear
8:35 AM -11.2 °F - -14.8 °F 84% 30.02 in 10.0 mi Calm Calm - N/A   Clear
8:55 AM -11.2 °F - -14.8 °F 84% 30.03 in 10.0 mi Calm Calm - N/A   Clear
9:15 AM -11.2 °F - -14.8 °F 84% 30.03 in 5.0 mi Calm Calm - N/A   Clear
9:35 AM -9.4 °F - -13.0 °F 84% 30.03 in 10.0 mi Calm Calm - N/A   Clear
9:54 AM -7.6 °F - -11.2 °F 84% 30.03 in 3.0 mi Calm Calm - N/A   Clear
10:15 AM -7.6 °F - -9.4 °F 92% 30.04 in 1.5 mi Calm Calm - N/A   Mist
10:35 AM -5.8 °F - -9.4 °F 84% 30.04 in 10.0 mi Calm Calm - N/A   Clear
10:54 AM -5.8 °F - -7.6 °F 92% 30.04 in 1.5 mi Calm Calm - N/A   Mist
11:15 AM -2.2 °F -10.4 °F -5.8 °F 85% 30.04 in 7.0 mi West 3.5 mph - N/A   Clear
11:34 AM -0.4 °F -8.3 °F -4.0 °F 85% 30.02 in 10.0 mi West 3.5 mph - N/A   Clear
11:55 AM 1.4 °F - -4.0 °F 78% 30.01 in 10.0 mi Calm Calm - N/A   Clear
12:15 PM 1.4 °F - -2.2 °F 85% 30.00 in 10.0 mi Calm Calm - N/A   Clear
12:35 PM 1.4 °F - -2.2 °F 85% 29.99 in 10.0 mi Calm Calm - N/A   Clear
12:55 PM 5.0 °F - -0.4 °F 78% 29.98 in 10.0 mi Calm Calm - N/A   Clear
1:15 PM 5.0 °F - -2.2 °F 72% 29.97 in 10.0 mi Calm Calm - N/A   Clear
1:35 PM 6.8 °F -0.1 °F -0.4 °F 72% 29.95 in 10.0 mi South 3.5 mph - N/A   Clear
1:55 PM 8.6 °F 0.1 °F -0.4 °F 67% 29.94 in 5.0 mi SSW 4.6 mph - N/A   Haze
2:15 PM 8.6 °F 2.0 °F -0.4 °F 67% 29.93 in 10.0 mi SSW 3.5 mph - N/A   Clear
2:35 PM 10.4 °F 2.2 °F -0.4 °F 62% 29.93 in 10.0 mi South 4.6 mph - N/A   Clear
2:55 PM 10.4 °F - 1.4 °F 67% 29.93 in 10.0 mi Calm Calm - N/A   Clear
3:15 PM 10.4 °F 2.2 °F -0.4 °F 62% 29.92 in 10.0 mi South 4.6 mph - N/A   Clear
3:35 PM 10.4 °F -0.4 °F -0.4 °F 62% 29.91 in 10.0 mi South 6.9 mph - N/A   Clear
3:55 PM 10.4 °F 2.2 °F -0.4 °F 62% 29.91 in 10.0 mi SSW 4.6 mph - N/A   Clear
4:15 PM 10.4 °F 0.8 °F -0.4 °F 62% 29.89 in 10.0 mi South 5.8 mph - N/A   Clear
4:35 PM 10.4 °F 0.8 °F -0.4 °F 62% 29.88 in 10.0 mi South 5.8 mph - N/A   Clear
4:55 PM 10.4 °F 0.8 °F -0.4 °F 62% 29.87 in 10.0 mi South 5.8 mph - N/A   Clear
5:15 PM 10.4 °F -2.4 °F -0.4 °F 62% 29.86 in 10.0 mi SSE 9.2 mph - N/A   Clear
5:35 PM 10.4 °F -1.5 °F 1.4 °F 67% 29.87 in 10.0 mi South 8.1 mph - N/A   Clear
5:55 PM 10.4 °F -0.4 °F 1.4 °F 67% 29.87 in 10.0 mi SSE 6.9 mph - N/A   Clear
6:15 PM 10.4 °F -1.5 °F -0.4 °F 62% 29.85 in 10.0 mi SSE 8.1 mph - N/A   Clear
6:35 PM 8.6 °F -4.7 °F -0.4 °F 67% 29.83 in 10.0 mi SSE 9.2 mph - N/A   Clear
6:54 PM 10.4 °F -4.1 °F -0.4 °F 62% 29.81 in 10.0 mi SSE 11.5 mph - N/A   Clear
7:15 PM 10.4 °F -4.1 °F -0.4 °F 62% 29.78 in 10.0 mi SSE 11.5 mph - N/A   Clear
7:35 PM 10.4 °F -3.3 °F -0.4 °F 62% 29.77 in 10.0 mi South 10.4 mph - N/A   Clear
7:55 PM 10.4 °F -2.4 °F -0.4 °F 62% 29.75 in 10.0 mi SSE 9.2 mph - N/A   Scattered Clouds
8:15 PM 10.4 °F -3.3 °F 1.4 °F 67% 29.73 in 10.0 mi South 10.4 mph - N/A Snow Light Snow
8:35 PM 10.4 °F -4.8 °F 3.2 °F 73% 29.70 in 10.0 mi SSE 12.7 mph - N/A Snow Light Snow
8:55 PM 12.2 °F -1.0 °F 5.0 °F 73% 29.68 in 4.0 mi SSE 10.4 mph - N/A Snow Light Snow
9:15 PM 10.4 °F -4.8 °F 5.0 °F 79% 29.66 in 2.5 mi SSE 12.7 mph - N/A Snow Light Snow
9:35 PM 12.2 °F -1.8 °F 8.6 °F 85% 29.64 in 2.0 mi SSE 11.5 mph - N/A Snow Light Snow
9:54 PM 10.4 °F -3.3 °F 8.6 °F 92% 29.63 in 1.5 mi SSE 10.4 mph - N/A Snow Light Snow
10:15 PM 10.4 °F -2.4 °F 8.6 °F 92% 29.61 in 1.5 mi SE 9.2 mph - N/A Snow Light Snow
10:35 PM 12.2 °F -1.8 °F 8.6 °F 85% 29.59 in 2.0 mi SE 11.5 mph - N/A Snow Light Snow
10:55 PM 12.2 °F -3.7 °F 10.4 °F 92% 29.56 in 1.2 mi SE 15.0 mph - N/A Snow Light Snow
11:15 PM 12.2 °F -4.3 °F 10.4 °F 92% 29.54 in 1.2 mi SE 16.1 mph - N/A Snow Light Snow
11:35 PM 12.2 °F -3.1 °F 10.4 °F 92% 29.52 in 0.8 mi SE 13.8 mph - N/A Snow Snow
11:55 PM 12.2 °F -3.7 °F 10.4 °F 92% 29.50 in 0.8 mi SSE 15.0 mph - N/A Snow Snow